Regional Weather Roundup
Issued by NWS

Home | Current Version | Previous Version | Graphics & Text | Print | Product List | Glossary On
Versions: 1 2 3 4 5 6 7 8 9 10 11 12 13 14 15 16 17 18 19 20 21 22 23 24 25 26 27 28 29 30 31 32 33 34 35 36 37 38 39 40 41 42 43 44 45 46 47 48 49 50
000
ASUS45 KABQ 271401
RWRNM
NEW MEXICO REGIONAL WEATHER ROUNDUP
NATIONAL WEATHER SERVICE ALBUQUERQUE NM
800 AM MDT THU APR 27 2017

NOTE: "FAIR" MEANS FEW OR NO CLOUDS BELOW 12,000 FEET AGL WITH NO
       SIGNIFICANT WEATHER OR OBSTRUCTIONS TO VISION.

      THIS PRODUCT IS RELEASED AS TWO VERSIONS.  ONE VERSION NEAR
      THE TOP OF THE HOUR CONTAINING PRELIMINARY DATA FROM ALBUQUERQUE
      AND OTHER STATIONS.  A FINAL VERSION WITH ADDITIONAL DATA IS
      ISSUED ABOUT 10 MINUTES AFTER THE HOUR.

NMZ501-503-504-510>518-271500-
NORTHWEST PLATEAU/NORTHCENTRAL MOUNTAINS

CITY           SKY/WX    TMP DP  RH WIND       PRES   REMARKS
FARMINGTON     LGT RAIN  44  42  93 S6        29.72S
LOS ALAMOS     FAIR      40  34  79 CALM      29.77R
SANTA FE       FAIR      51  33  50 W9        29.73R
TAOS             N/A     36  27  69 E8        29.76R WCI  29
ANGEL FIRE     SNOW      32  31  96 S3        29.76S VSB 1/2

$$
NMZ402-403-502-505>509-271500-
WESTCENTRAL MOUNTAINS/SOUTHWEST MOUNTAINS

CITY           SKY/WX    TMP DP  RH WIND       PRES   REMARKS
GALLUP         CLOUDY    51  26  37 SW21G26   29.80R
GRANTS         FAIR      52  24  33 W21G38    29.80R
SILVER CITY    FAIR      59  24  25 NW16G22   29.86R

$$
NMZ407-409-411-412-271500-
SOUTHERN DESERTS

CITY           SKY/WX    TMP DP  RH WIND       PRES   REMARKS
DEMING         FAIR      59  24  26 SW12      29.80S
LAS CRUCES     FAIR      62  24  23 SW8       29.81R
HOLLOMAN AFB   FAIR      62  24  23 S13       29.78R
ALAMOGORDO     FAIR      66  28  24 S16       29.77R
T OR C         FAIR      55  26  32 SE5       29.75R

$$
NMZ519>523-271500-
CENTRAL VALLEYS/CENTRAL HIGHLANDS

CITY           SKY/WX    TMP DP  RH WIND       PRES   REMARKS
ALBUQUERQUE    FAIR      55  27  34 W9        29.73S
DOUBLE EAGLE   PTSUNNY   48  36  61 CALM      29.75R
MORIARTY ARPT  FAIR      56  28  35 W13       29.76S
CLINES CORNERS FAIR      49  25  39 W12       29.77S
BELEN          CLOUDY    58  23  26 W3        29.75R
SOCORRO        FAIR      62  24  22 SW8       29.73S

$$
NMZ524>526-539-540-271500-
SOUTHCENTRAL MOUNTAINS

CITY           SKY/WX    TMP DP  RH WIND       PRES   REMARKS
RUIDOSO        NOT AVBL

$$
NMZ527>531-271500-
NORTHEAST HIGHLANDS/NORTHEAST PLAINS

CITY           SKY/WX    TMP DP  RH WIND       PRES   REMARKS
LAS VEGAS      FAIR      50  30  46 W23G31    29.70R
RATON          FAIR      40  32  73 CALM      29.62F
CLAYTON        CLOUDY    43  38  82 S7        29.61F

$$
NMZ532>537-271500-
EASTCENTRAL PLAINS

CITY           SKY/WX    TMP DP  RH WIND       PRES   REMARKS
SANTA ROSA     FAIR      57  27  31 SW7       29.66F
TUCUMCARI      FAIR      55  36  48 SW12      29.61S
CANNON AFB     CLOUDY    50  35  56 S7        29.69S
CLOVIS AIRPORT FAIR      48  34  57 S12       29.68F

$$
NMZ028-029-538-271500-
SOUTHEAST PLAINS

CITY           SKY/WX    TMP DP  RH WIND       PRES   REMARKS
ROSWELL        FAIR      57  27  31 SE5       29.69R
ARTESIA        FAIR      70  27  19 SW14G21   29.68S
CARLSBAD       FAIR      72  26  18 SW8       29.69R
HOBBS          SUNNY     55  30  38 SW7       29.72S


$$



USA.gov is the U.S. government's official web portal to all federal, state and local government web resources and services.